Miscellaneous Local Product
Issued by NWS Hastings, NE

Home | Current Version | Previous Version | Text Only | Print | Product List | Glossary Off
Versions: 1 2 3 4 5 6 7 8 9 10 11 12 13 14 15 16 17 18 19 20 21 22 23 24 25 26 27 28 29 30 31 32 33 34 35 36 37 38 39 40 41 42 43 44 45 46 47 48 49 50

000
AXUS43 KGID 290402
MISGRI

GID CWA HOURLY WEATHER ROUNDUP
NATIONAL WEATHER SERVICE HASTINGS NE
1100 PM CDT MON JUL 28 2014

NOTE: "FAIR" INDICATES FEW OR NO CLOUDS BELOW 12,000 FEET WITH NO
SIGNIFICANT WEATHER AND/OR OBSTRUCTIONS TO VISIBILITY.

...SOUTH CENTRAL NEBRASKA...

CITY           SKY/WX    TMP DP  RH WIND       PRES   REMARKS
GRAND ISLAND   CLEAR     64  57  78 SE5       30.23R
HASTINGS       PTCLDY    68  54  60 E7        30.22S
KEARNEY        CLEAR     64  57  77 E7        30.23R
ORD            CLEAR     64  57  78 SE5       30.22R
YORK           CLEAR     61  57  88 E5        30.22F
AURORA         CLEAR     62  59  90 E5        30.22S
LEXINGTON      PTCLDY    68  59  73 E7        30.23R
HOLDREGE       PTCLDY    66  59  77 E8        30.23R
HEBRON         CLEAR     64  56  75 E3        30.21S

...NEBRASKA PANHANDLE...

CITY           SKY/WX    TMP DP  RH WIND       PRES   REMARKS
CHADRON        CLEAR     70  55  59 NE8       30.23R
ALLIANCE       CLEAR     69  58  67 E9        30.24R
SCOTTSBLUFF    CLEAR     72  59  63 SE10      30.23R
SIDNEY         CLOUDY    74  53  48 S9        30.27R

...WESTERN AND NORTH CENTRAL NEBRASKA...

CITY           SKY/WX    TMP DP  RH WIND       PRES   REMARKS
VALENTINE      PTCLDY    67  51  56 E8        30.25R
AINSWORTH      CLEAR     62  56  82 E6        30.25R
ONEILL         CLEAR     63  54  72 E3        30.24R
BROKEN BOW     CLEAR     65  57  75 E5        30.23R
IMPERIAL       CLOUDY    71  57  61 SE14      30.24R
NORTH PLATTE   PTCLDY    66  59  78 E8        30.23R
MCCOOK         PTCLDY    70  59  68 E7        30.23R

...EASTERN NEBRASKA...

CITY           SKY/WX    TMP DP  RH WIND       PRES   REMARKS
NORFOLK        CLEAR     60  53  77 CALM      30.21F
SO SIOUX CITY  CLEAR     60  56  86 N3        30.20S
TEKAMAH        CLEAR     62  57  83 NW6       30.19S
ALBION         CLEAR     60  55  84 CALM      30.23R
OMAHA EPPLEY   CLEAR     65  56  72 NW3       30.19R
OFFUTT AFB     CLEAR     59  58  96 CALM      30.18S
MILLARD        CLEAR     67  56  69 W5        30.19R
LINCOLN        CLEAR     62  54  74 N6        30.21S
NEBRASKA CITY  CLEAR     63  54  71 NW3       30.19S
BEATRICE       CLEAR     61  56  83 NE3       30.20S
FALLS CITY     CLEAR     65  56  72 NW3       30.18R

...NORTHERN KANSAS...

CITY           SKY/WX    TMP DP  RH WIND       PRES   REMARKS
GOODLAND       CLOUDY    69  56  62 S9        30.26R
HILL CITY      MOCLDY    76  58  53 E7        30.21R
NORTON         CLEAR     70  54  56 E10       30.21R
PHILLIPSBURG   CLEAR     72  55  56 E9        30.20R
SMITH CENTER   CLEAR     66  57  72 E9        30.21R
HAYS           MOCLDY    72  57  60 SE7       30.20R
RUSSELL        PTCLDY    69  57  65 E9        30.19R
CONCORDIA      PTCLDY    68  57  68 E5        30.20S
SALINA         PTCLDY    76  54  46 NE10      30.18S
TOPEKA         CLEAR     68  57  68 CALM      30.18S



USA.gov is the U.S. government's official web portal to all federal, state and local government web resources and services.